Weather History for Newton, KS

Change the Weather History Date:

Friday, February 1, 2013

  Actual Average Record
Temperature  
Mean Temperature 22 °F -  
Max Temperature 33 °F 38 °F 64 °F (2003)
Min Temperature 12 °F 22 °F 1 °F (2011)
Degree Days  
Heating Degree Days 42    
Moisture  
Dew Point 7 °F    
Average Humidity 54    
Maximum Humidity 79    
Minimum Humidity 32    
Precipitation  
Precipitation 0.00 in - - ()
Sea Level Pressure  
Sea Level Pressure 30.27 in    
Wind  
Wind Speed 9 mph (SSW)    
Max Wind Speed 18 mph    
Max Gust Speed 24 mph    
Visibility 10 miles    
Events      
Averages and records for this station are not official NWS values.
T = Trace of Precipitation, MM = Missing Value Source: NWS Daily Summary

Daily Weather History Graph

Daily Weather History Graph

Search for Another Location

Airport:

Trip Planner

Search our weather history database for the weather conditions in past years. The results will help you decide how hot, cold, wet, or windy it might be!

Date:

Astronomy

Feb. 01, 2013 Rise Set
Actual Time 7:33 AM CST 5:52 PM CST
Civil Twilight 7:05 AM CST 6:20 PM CST
Nautical Twilight 6:34 AM CST 6:51 PM CST
Astronomical Twilight 6:03 AM CST 7:22 PM CST
Moon 11:54 PM CST (2/1) 10:13 AM CST (2/1)
Length of Visible Light 11h 14m
Length of Day
10h 19m
Waning Gibbous, 70% of the Moon is Illuminated
Feb 1
Waning Gibbous
Feb 3
Last Quarter
Feb 10
New
Feb 17
First Quarter
Feb 25
Full

Hourly Weather History & Observations

Time (CST) Temp. Windchill Dew Point Humidity Pressure Visibility Wind Dir Wind Speed Gust Speed Precip Events Conditions
12:15 AM 14.0 °F 2.9 °F 5.0 °F 67% 30.40 in 10.0 mi East 8.1 mph - N/A   Mostly Cloudy
12:35 AM 14.0 °F 3.9 °F 3.2 °F 62% 30.38 in 10.0 mi East 6.9 mph - N/A   Mostly Cloudy
12:55 AM 12.2 °F 6.1 °F 3.2 °F 67% 30.38 in 10.0 mi East 3.5 mph - N/A   Scattered Clouds
1:15 AM 12.2 °F - 5.0 °F 73% 30.38 in 10.0 mi Calm Calm - N/A   Mostly Cloudy
1:35 AM 12.2 °F - 5.0 °F 73% 30.39 in 10.0 mi Calm Calm - N/A   Scattered Clouds
1:55 AM 12.2 °F - 3.2 °F 67% 30.37 in 10.0 mi Calm Calm - N/A   Clear
2:15 AM 12.2 °F 1.7 °F 3.2 °F 67% 30.39 in 10.0 mi SW 6.9 mph - N/A   Clear
2:35 AM 12.2 °F 1.7 °F 3.2 °F 67% 30.40 in 10.0 mi SW 6.9 mph - N/A   Clear
2:55 AM 12.2 °F 1.7 °F 3.2 °F 67% 30.40 in 10.0 mi SW 6.9 mph - N/A   Clear
3:15 AM 12.2 °F 4.3 °F 5.0 °F 73% 30.40 in 10.0 mi SW 4.6 mph - N/A   Clear
3:35 AM 12.2 °F 4.3 °F 3.2 °F 67% 30.40 in 10.0 mi SSW 4.6 mph - N/A   Clear
3:55 AM 12.2 °F 4.3 °F 3.2 °F 67% 30.39 in 10.0 mi SSW 4.6 mph - N/A   Clear
4:15 AM 12.2 °F 6.1 °F 3.2 °F 67% 30.38 in 10.0 mi SSW 3.5 mph - N/A   Clear
4:35 AM 12.2 °F 6.1 °F 3.2 °F 67% 30.38 in 10.0 mi SSW 3.5 mph - N/A   Clear
5:15 AM 12.2 °F 4.3 °F 3.2 °F 67% 30.37 in 10.0 mi SSW 4.6 mph - N/A   Clear
5:35 AM 12.2 °F 2.9 °F 3.2 °F 67% 30.37 in 10.0 mi SW 5.8 mph - N/A   Clear
5:55 AM 12.2 °F 1.7 °F 3.2 °F 67% 30.38 in 10.0 mi SW 6.9 mph - N/A   Clear
6:15 AM 12.2 °F 1.7 °F 5.0 °F 73% 30.38 in 10.0 mi SW 6.9 mph - N/A   Clear
6:35 AM 12.2 °F 1.7 °F 5.0 °F 73% 30.38 in 10.0 mi SW 6.9 mph - N/A   Clear
7:15 AM 12.2 °F 0.7 °F 5.0 °F 73% 30.38 in 10.0 mi SSW 8.1 mph - N/A   Mostly Cloudy
7:35 AM 12.2 °F 0.7 °F 6.8 °F 79% 30.38 in 10.0 mi SSW 8.1 mph - N/A   Mostly Cloudy
7:55 AM 12.2 °F 0.7 °F 6.8 °F 79% 30.38 in 10.0 mi SSW 8.1 mph - N/A   Mostly Cloudy
8:15 AM 15.8 °F 3.4 °F 6.8 °F 68% 30.37 in 10.0 mi SSW 10.4 mph - N/A   Overcast
8:35 AM 15.8 °F 3.4 °F 6.8 °F 68% 30.37 in 10.0 mi SSW 10.4 mph - N/A   Mostly Cloudy
8:55 AM 15.8 °F 2.1 °F 8.6 °F 73% 30.37 in 10.0 mi SSW 12.7 mph - N/A   Partly Cloudy
9:15 AM 17.6 °F 5.0 °F 6.8 °F 63% 30.37 in 10.0 mi SSW 11.5 mph - N/A   Clear
9:35 AM 19.4 °F 5.5 °F 8.6 °F 63% 30.36 in 10.0 mi SSW 15.0 mph - N/A   Scattered Clouds
9:55 AM 21.2 °F 8.3 °F 6.8 °F 54% 30.36 in 10.0 mi SSW 13.8 mph - N/A   Partly Cloudy
10:15 AM 21.2 °F 8.9 °F 6.8 °F 54% 30.36 in 10.0 mi South 12.7 mph - N/A   Scattered Clouds
10:35 AM 21.2 °F 6.8 °F 6.8 °F 54% 30.36 in 10.0 mi SSW 17.3 mph - N/A   Overcast
10:55 AM 21.2 °F 6.4 °F 6.8 °F 54% 30.36 in 10.0 mi SSW 18.4 mph - N/A   Overcast
11:15 AM 23.0 °F 10.1 °F 6.8 °F 50% 30.35 in 10.0 mi South 15.0 mph - N/A   Overcast
11:35 AM 24.8 °F 11.1 °F 6.8 °F 46% 30.34 in 10.0 mi SSW 18.4 mph - N/A   Mostly Cloudy
11:55 AM 24.8 °F 11.5 °F 6.8 °F 46% 30.32 in 10.0 mi SSW 17.3 mph - N/A   Overcast
12:15 PM 24.8 °F 11.5 °F 5.0 °F 43% 30.31 in 10.0 mi SSW 17.3 mph - N/A   Mostly Cloudy
12:35 PM 26.6 °F 14.7 °F 5.0 °F 40% 30.30 in 10.0 mi SSW 15.0 mph 23.0 mph N/A   Mostly Cloudy
12:55 PM 28.4 °F 15.8 °F 6.8 °F 40% 30.29 in 10.0 mi SSW 18.4 mph 21.9 mph N/A   Partly Cloudy
1:15 PM 30.2 °F 19.3 °F 6.8 °F 37% 30.27 in 10.0 mi South 15.0 mph 21.9 mph N/A   Clear
1:35 PM 32.0 °F 20.5 °F 8.6 °F 38% 30.25 in 10.0 mi SSW 18.4 mph - N/A   Clear
1:55 PM 32.0 °F 20.5 °F 8.6 °F 38% 30.22 in 10.0 mi SSW 18.4 mph 24.2 mph N/A   Clear
2:15 PM 33.8 °F 23.2 °F 8.6 °F 35% 30.21 in 10.0 mi SSW 17.3 mph 20.7 mph N/A   Clear
2:35 PM 30.2 °F 18.9 °F 6.8 °F 37% 30.20 in 10.0 mi SSW 16.1 mph - N/A   Clear
2:55 PM 33.8 °F 24.3 °F 8.6 °F 35% 30.20 in 10.0 mi SSW 13.8 mph - N/A   Clear
3:15 PM 33.8 °F 23.5 °F 6.8 °F 32% 30.18 in 10.0 mi SSW 16.1 mph 19.6 mph N/A   Clear
3:35 PM 32.0 °F 21.6 °F 6.8 °F 35% 30.18 in 10.0 mi SSW 15.0 mph - N/A   Clear
3:55 PM 33.8 °F 23.9 °F 6.8 °F 32% 30.17 in 10.0 mi SSW 15.0 mph - N/A   Clear
4:15 PM 33.8 °F 23.9 °F 8.6 °F 35% 30.17 in 10.0 mi SSW 15.0 mph - N/A   Clear
4:35 PM 33.8 °F 24.3 °F 6.8 °F 32% 30.16 in 10.0 mi SSW 13.8 mph - N/A   Clear
4:55 PM 32.0 °F 22.1 °F 6.8 °F 35% 30.16 in 10.0 mi South 13.8 mph - N/A   Clear
5:15 PM 32.0 °F 23.0 °F 6.8 °F 35% 30.16 in 10.0 mi SSW 11.5 mph - N/A   Clear
5:35 PM 30.2 °F 22.6 °F 6.8 °F 37% 30.16 in 10.0 mi South 8.1 mph - N/A   Clear
5:55 PM 28.4 °F 21.2 °F 6.8 °F 40% 30.15 in 10.0 mi SSE 6.9 mph - N/A   Clear
6:15 PM 26.6 °F 19.1 °F 6.8 °F 43% 30.15 in 10.0 mi SSE 6.9 mph - N/A   Clear
6:35 PM 26.6 °F 19.1 °F 6.8 °F 43% 30.15 in 10.0 mi SSE 6.9 mph - N/A   Clear
6:55 PM 24.8 °F 16.1 °F 6.8 °F 46% 30.16 in 10.0 mi South 8.1 mph - N/A   Clear
7:15 PM 24.8 °F 14.6 °F 8.6 °F 50% 30.16 in 10.0 mi South 10.4 mph - N/A   Clear
7:35 PM 24.8 °F 15.3 °F 8.6 °F 50% 30.16 in 10.0 mi South 9.2 mph - N/A   Clear
7:55 PM 24.8 °F 15.3 °F 8.6 °F 50% 30.15 in 10.0 mi South 9.2 mph - N/A   Clear
8:15 PM 24.8 °F 14.6 °F 8.6 °F 50% 30.14 in 10.0 mi South 10.4 mph - N/A   Clear
8:35 PM 24.8 °F 14.6 °F 8.6 °F 50% 30.14 in 10.0 mi South 10.4 mph - N/A   Clear
8:55 PM 26.6 °F 17.5 °F 10.4 °F 51% 30.14 in 10.0 mi South 9.2 mph - N/A   Clear
9:15 PM 28.4 °F 19.1 °F 10.4 °F 47% 30.14 in 10.0 mi South 10.4 mph - N/A   Clear
9:35 PM 28.4 °F 19.1 °F 10.4 °F 47% 30.15 in 10.0 mi South 10.4 mph - N/A   Clear
9:55 PM 28.4 °F 19.1 °F 10.4 °F 47% 30.15 in 10.0 mi South 10.4 mph - N/A   Clear
10:15 PM 28.4 °F 19.7 °F 10.4 °F 47% 30.15 in 10.0 mi South 9.2 mph - N/A   Mostly Cloudy
10:35 PM 28.4 °F 21.2 °F 10.4 °F 47% 30.15 in 10.0 mi South 6.9 mph - N/A   Scattered Clouds
10:55 PM 26.6 °F 20.0 °F 10.4 °F 51% 30.16 in 10.0 mi South 5.8 mph - N/A   Clear
11:15 PM 26.6 °F 20.0 °F 10.4 °F 51% 30.16 in 10.0 mi South 5.8 mph - N/A   Scattered Clouds
11:35 PM 26.6 °F 19.1 °F 10.4 °F 51% 30.15 in 10.0 mi SSW 6.9 mph - N/A   Mostly Cloudy
11:55 PM 26.6 °F 19.1 °F 10.4 °F 51% 30.15 in 10.0 mi SW 6.9 mph - N/A   Scattered Clouds